Christchurch, New Zealand

5:29 AM NZDT on March 27, 2017 (GMT +1300)
Christchurch

Weather History for 93780 - September, 2013

Change the Weather History Date:

Thursday, September 12, 2013

  Actual Average Record
Temperature  
Mean Temperature 50 °F -  
Max Temperature 60 °F 57 °F - ()
Min Temperature 41 °F 39 °F - ()
Degree Days  
Heating Degree Days 14    
Moisture  
Dew Point 37 °F    
Average Humidity 57    
Maximum Humidity 87    
Minimum Humidity 27    
Precipitation  
Precipitation 0.00 in - - ()
Sea Level Pressure  
Sea Level Pressure 29.55 in    
Wind  
Wind Speed 15 mph ()    
Max Wind Speed 24 mph    
Max Gust Speed 37 mph    
Visibility 6.2 miles    
Events      
T = Trace of Precipitation, MM = Missing Value Source: Averaged Metar Reports

Daily Weather History Graph

Daily Weather History Graph

Search for Another Location

Airport or City:

Trip Planner

Search our weather history database for the weather conditions in past years. The results will help you decide how hot, cold, wet, or windy it might be!

Date:

Astronomy

Sep. 12, 2013 Rise Set
Actual Time 6:37 AM NZST 6:15 PM NZST
Civil Twilight 6:09 AM NZST 6:43 PM NZST
Nautical Twilight 5:36 AM NZST 7:16 PM NZST
Astronomical Twilight 5:02 AM NZST 7:50 PM NZST
Moon 10:20 AM NZST (9/12) 12:28 AM NZST (9/12)
Length of Visible Light 12h 34m
Length of Day
11h 37m
Waxing Crescent, 42% of the Moon is Illuminated
Sep 12
Waxing Crescent
Sep 13
First Quarter
Sep 19
Full
Sep 27
Last Quarter
Oct 5
New

Hourly Weather History & Observations

Time (NZST) Temp. Windchill Dew Point Humidity Pressure Visibility Wind Dir Wind Speed Gust Speed Precip Events Conditions
12:00 AM 57.2 °F - 35.6 °F 44% 29.33 in 6.2 mi NW 19.6 mph - N/A   Unknown
12:30 AM 57.2 °F - 37.4 °F 48% 29.33 in 6.2 mi NNW 19.6 mph - N/A   Unknown
1:00 AM 53.6 °F - 39.2 °F 58% 29.30 in 6.2 mi North 11.5 mph - N/A   Unknown
1:30 AM 55.4 °F - 39.2 °F 54% 29.30 in 6.2 mi NW 23.0 mph 36.8 mph N/A   Unknown
2:00 AM 55.4 °F - 37.4 °F 51% 29.30 in 6.2 mi NW 19.6 mph - N/A   Unknown
2:30 AM 57.2 °F - 35.6 °F 44% 29.33 in 6.2 mi WNW 24.2 mph 36.8 mph N/A   Unknown
3:00 AM 55.4 °F - 37.4 °F 51% 29.33 in 6.2 mi NW 21.9 mph 35.7 mph N/A   Unknown
3:30 AM 55.4 °F - 37.4 °F 51% 29.33 in 6.2 mi NW 24.2 mph - N/A   Unknown
4:00 AM 55.4 °F - 37.4 °F 51% 29.36 in 6.2 mi NW 23.0 mph 35.7 mph N/A   Unknown
4:30 AM 53.6 °F - 37.4 °F 54% 29.36 in 6.2 mi NW 18.4 mph - N/A   Mostly Cloudy
5:00 AM 51.8 °F - 39.2 °F 62% 29.39 in 6.2 mi NNW 19.6 mph - N/A   Partly Cloudy
5:30 AM 50.0 °F - 41.0 °F 71% 29.42 in 6.2 mi NNW 12.7 mph - N/A   Unknown
6:00 AM 48.2 °F - 41.0 °F 76% 29.44 in 6.2 mi NNW 10.4 mph - N/A   Unknown
6:30 AM 48.2 °F - 39.2 °F 71% 29.47 in 6.2 mi NW 6.9 mph - N/A   Scattered Clouds
7:00 AM 48.2 °F - 37.4 °F 66% 29.47 in 6.2 mi NW 5.8 mph - N/A   Scattered Clouds
7:30 AM 51.8 °F - 39.2 °F 62% 29.47 in 6.2 mi NW 8.1 mph - N/A   Partly Cloudy
8:00 AM 53.6 °F - 35.6 °F 51% 29.50 in 6.2 mi West 12.7 mph - N/A   Unknown
8:30 AM 57.2 °F - 32.0 °F 38% 29.53 in 6.2 mi West 17.3 mph - N/A   Scattered Clouds
9:00 AM 57.2 °F - 32.0 °F 38% 29.53 in 6.2 mi WNW 19.6 mph - N/A   Scattered Clouds
9:30 AM 55.4 °F - 30.2 °F 38% 29.53 in 6.2 mi West 15.0 mph 26.5 mph N/A   Unknown
10:00 AM 57.2 °F - 30.2 °F 36% 29.56 in 6.2 mi WNW 24.2 mph - N/A   Unknown
10:30 AM 59.0 °F - 30.2 °F 34% 29.56 in 6.2 mi WNW 21.9 mph - N/A   Unknown
11:00 AM 59.0 °F - 32.0 °F 36% 29.59 in 6.2 mi West 19.6 mph - N/A   Unknown
11:30 AM 59.0 °F - 35.6 °F 42% 29.59 in 6.2 mi WNW 21.9 mph - N/A   Unknown
12:00 PM 59.0 °F - 33.8 °F 39% 29.59 in 6.2 mi WNW 19.6 mph - N/A   Unknown
12:30 PM 59.0 °F - 33.8 °F 39% 29.62 in 6.2 mi WNW 19.6 mph - N/A   Unknown
1:00 PM 59.0 °F - 32.0 °F 36% 29.62 in 6.2 mi WNW 17.3 mph - N/A   Unknown
1:30 PM 60.8 °F - 32.0 °F 34% 29.62 in 6.2 mi WNW 17.3 mph - N/A   Unknown
2:00 PM 60.8 °F - 32.0 °F 34% 29.62 in 6.2 mi WNW 15.0 mph - N/A   Partly Cloudy
2:30 PM 60.8 °F - 26.6 °F 27% 29.62 in 6.2 mi West 17.3 mph 28.8 mph N/A   Unknown
3:00 PM 57.2 °F - 42.8 °F 59% 29.62 in 6.2 mi SSW 11.5 mph 24.2 mph N/A   Unknown
3:30 PM 55.4 °F - 42.8 °F 63% 29.65 in 6.2 mi East 12.7 mph - N/A   Scattered Clouds
4:00 PM 53.6 °F - 42.8 °F 67% 29.65 in 6.2 mi East 15.0 mph - N/A   Mostly Cloudy
4:30 PM 51.8 °F - 41.0 °F 67% 29.65 in 6.2 mi East 17.3 mph - N/A   Unknown
5:00 PM 50.0 °F - 41.0 °F 71% 29.65 in 6.2 mi East 16.1 mph - N/A   Unknown
5:30 PM 50.0 °F - 41.0 °F 71% 29.68 in 6.2 mi East 15.0 mph - N/A   Unknown
6:00 PM 48.2 °F - 41.0 °F 76% 29.68 in 6.2 mi ENE 11.5 mph - N/A   Unknown
6:30 PM 44.6 °F 39.7 °F 39.2 °F 81% 29.68 in 6.2 mi NE 9.2 mph - N/A   Unknown
7:00 PM 46.4 °F 42.4 °F 41.0 °F 81% 29.68 in 6.2 mi ENE 8.1 mph - N/A   Unknown
7:30 PM 46.4 °F 42.9 °F 41.0 °F 81% 29.71 in 6.2 mi ENE 6.9 mph - N/A   Unknown
8:00 PM 44.6 °F 40.2 °F 41.0 °F 87% 29.71 in 6.2 mi NE 8.1 mph - N/A   Partly Cloudy
8:30 PM 44.6 °F 41.4 °F 41.0 °F 87% 29.71 in 6.2 mi NNE 5.8 mph - N/A   Unknown
9:00 PM 44.6 °F 39.7 °F 41.0 °F 87% 29.68 in 6.2 mi East 9.2 mph - N/A   Unknown
9:30 PM 42.8 °F 38.6 °F 39.2 °F 87% 29.68 in 6.2 mi NNE 6.9 mph - N/A   Unknown
10:00 PM 41.0 °F 37.1 °F 35.6 °F 81% 29.68 in 6.2 mi NNE 5.8 mph - N/A   Scattered Clouds
10:30 PM 44.6 °F 40.2 °F 32.0 °F 61% 29.68 in 6.2 mi North 8.1 mph - N/A   Overcast
11:00 PM 46.4 °F 43.5 °F 32.0 °F 57% 29.68 in 6.2 mi ENE 5.8 mph - N/A   Overcast
11:30 PM 44.6 °F 43.1 °F 30.2 °F 57% 29.68 in 6.2 mi NE 3.5 mph - N/A   Scattered Clouds